Location: Unspecified
(0.0000°N, 0.0000°E)
Time: 06:24:08
(UTC+00:00)

CUTE-I - Visible Passes

Search period start: 08 June 2023 00:00
Search period end: 18 June 2023 00:00
Orbit: 808 x 823 km, 98.7° (Epoch: 07 June)

Date Brightness Start Highest point End Pass type
(mag) Time Alt. Az. Time Alt. Az. Time Alt. Az.
08 Jun ? 05:03:34 10° NE 05:07:25 21° ESE 05:11:16 10° SSE visible
09 Jun ? 04:44:22 10° E 04:45:31 11° ESE 04:46:41 10° ESE visible
09 Jun ? 19:01:00 10° SW 19:04:10 16° WSW 19:07:22 10° WNW visible
10 Jun ? 18:37:41 10° SSW 18:42:17 29° WSW 18:46:51 10° NW visible
12 Jun ? 05:14:57 10° NE 05:19:27 28° ESE 05:23:58 10° SSE visible
13 Jun ? 04:54:29 10° ENE 04:57:33 16° ESE 05:00:37 10° SE visible
13 Jun ? 19:14:46 10° WSW 19:16:13 11° WSW 19:17:39 10° W visible
14 Jun ? 18:50:22 10° SSW 18:54:20 21° WSW 18:58:15 10° NW visible
15 Jun ? 18:27:29 10° S 18:32:25 38° WSW 18:37:19 10° NW visible
16 Jun ? 05:26:34 10° NE 05:31:29 40° ESE 05:36:25 10° S visible
17 Jun ? 05:05:34 10° NE 05:09:35 22° ESE 05:13:35 10° SSE visible
